12:43
Airports
History
Links
Donate
Help keep this website running!
PayPal
Bitcoin
This page is community maintained. The information is intended for PC simulator navigation or reference.
Always use approved charts for navigation.
SWWL
FAZENDA AGROCENTRO
FAZENDA AGROCENTRO (SWWL)
Barra do Garças, Mato Grosso, Brazil (78600)
(U)
Lat/Lng:15° 41' 14.36" S / 52° 15' 59.22" W
-15.687321 / -52.266449
Elevation:1119'ft / 341mMSL
ID / ICAO:SWWL
Runways:1
Longest:17-35
Asphalt 1,143m / 3,749ft
Nearby Weather11:00 GMT 2017-12-18
Nearby weather at SBBW, BARRA DO GARCAS located 14.5 nautical miles from SWWL
Altimeter: 29.94
Visibility: 6.2 statute miles
Wind: 4 knots (from 120°)
Temp: 25°c / 77°f
Humidity: 78.5%

METAR: SBBW 181100Z 12004KT CAVOK 25/21 Q1014

(Powered by phpweather)
Runway 17 / 35
Dimensions:1142.6 x 15.2m 3749' x 50'ft
Surface:Asphalt
Runway 17 [A]Runway 35 [B]
Heading:152°TH 332°TH
Lat:
Lng:
15° 40' 57.85"S
52° 16' 8.21"W
15° 41' 30.86"S
52° 15' 50.22"W
User Notes and Comments
15° 41' 14.36" S / 52° 15' 59.22" W
Distance To
Airport ID:
Nearby Airports
4 Fazenda Eldorado 8.3 NM
SWDB NNE 22°
(C) BARRA DO GARCAS 14.5 NM
SBBW ( WX ) SW 214°
(U) Aragarcas 14.7 NM
SJVO S 174°
(U) ESTANCIA DAS CASCATAS 18.4 NM
SWEC SE 141°
4 Fazenda Espinhaco II 23.8 NM
SDQZ NNE 32°
(C) Araguaiana 28.7 NM
SWAY E 95°
4 Fazenda Santo Antonio 30.4 NM
SWSD E 81°
VFR Chart
Flight Planning at SkyVector.com